• In Hungary
  • List of Countries
  • For 7 days
  • Water Temperature
  • Satellite Maps
  • Weather Map
  • News
  • Weather Widgets
  • user-avatar
    Login

    Hourly Weather Chrobakowe

    Today, 18 October, Wednesday

    Time Temperature Precipitation Wind Pressure Humidity
    00:00 +13°C° 0 mm 3 mps 741 mmHg 71%
    01:00 +14°C° 0 mm 2 mps 740 mmHg 72%
    02:00 +14°C° 0 mm 2 mps 740 mmHg 73%
    03:00 +13°C° 0 mm 2 mps 740 mmHg 74%
    04:00 +13°C° 0 mm 2 mps 740 mmHg 75%
    05:00 +13°C° 0 mm 2 mps 739 mmHg 75%
    06:00 +13°C° 0 mm 2 mps 739 mmHg 76%
    07:00 +13°C° 0 mm 2 mps 739 mmHg 77%
    08:00 +15°C° 0 mm 2 mps 739 mmHg 70%
    09:00 +17°C° 0 mm 2 mps 739 mmHg 64%
    10:00 +19°C° 0 mm 2 mps 739 mmHg 58%
    11:00 +20°C° 0 mm 2 mps 739 mmHg 54%
    12:00 +21°C° 0 mm 2 mps 738 mmHg 51%
    13:00 +23°C° 0 mm 2 mps 738 mmHg 48%
    14:00 +21°C° 0 mm 2 mps 738 mmHg 51%
    15:00 +21°C° 0 mm 1 mps 737 mmHg 55%
    16:00 +21°C° 0 mm 1 mps 737 mmHg 58%
    17:00 +20°C° 0 mm 1 mps 737 mmHg 61%
    18:00 +19°C° 0 mm 1 mps 737 mmHg 64%
    19:00 +18°C° 0 mm 1 mps 737 mmHg 67%
    20:00 +16°C° 0 mm 1 mps 737 mmHg 69%
    21:00 +16°C° 0 mm 1 mps 737 mmHg 71%
    22:00 +15°C° 0 mm 1 mps 736 mmHg 73%
    23:00 +15°C° 0 mm 1 mps 736 mmHg 75%

    Tomorrow, 19 October, Thursday

    Time Temperature Precipitation Wind Pressure Humidity
    00:00 +14°C° 0 mm 1 mps 736 mmHg 76%
    01:00 +14°C° 0 mm 1 mps 736 mmHg 78%
    02:00 +14°C° 0 mm 1 mps 736 mmHg 79%
    03:00 +13°C° 0 mm 1 mps 736 mmHg 80%
    04:00 +13°C° 0 mm 1 mps 736 mmHg 81%
    05:00 +13°C° 0 mm 1 mps 736 mmHg 82%
    06:00 +13°C° 0 mm 1 mps 736 mmHg 83%
    07:00 +12°C° 0 mm 1 mps 736 mmHg 84%
    08:00 +14°C° 0 mm 1 mps 736 mmHg 77%
    09:00 +16°C° 0 mm 1 mps 736 mmHg 71%
    10:00 +18°C° 0 mm 1 mps 737 mmHg 65%
    11:00 +19°C° 0 mm 1 mps 737 mmHg 62%
    12:00 +20°C° 0 mm 1 mps 736 mmHg 59%
    13:00 +20°C° 0 mm 1 mps 736 mmHg 56%
    14:00 +20°C° 0 mm 1 mps 736 mmHg 58%
    15:00 +19°C° 0 mm 1 mps 736 mmHg 61%
    16:00 +17°C° 0 mm 0 mps 736 mmHg 63%
    17:00 +16°C° 0 mm 0 mps 736 mmHg 67%
    18:00 +15°C° 0 mm 0 mps 737 mmHg 71%
    19:00 +14°C° 0 mm 0 mps 737 mmHg 74%
    20:00 +13°C° 0 mm 0 mps 737 mmHg 77%
    21:00 +13°C° 0 mm 0 mps 737 mmHg 79%
    22:00 +13°C° 0 mm 1 mps 738 mmHg 81%
    23:00 +13°C° 0 mm 1 mps 738 mmHg 83%

    Day after tomorrow, 20 October, Friday

    Time Temperature Precipitation Wind Pressure Humidity
    00:00 +13°C° 0 mm 1 mps 738 mmHg 85%
    01:00 +12°C° 0 mm 1 mps 738 mmHg 87%
    02:00 +12°C° 0 mm 1 mps 738 mmHg 88%
    03:00 +12°C° 0 mm 1 mps 738 mmHg 89%
    04:00 +11°C° 0 mm 1 mps 738 mmHg 90%
    05:00 +11°C° 0 mm 1 mps 738 mmHg 91%
    06:00 +10°C° 0 mm 2 mps 738 mmHg 92%
    07:00 +10°C° 0 mm 2 mps 739 mmHg 93%
    08:00 +13°C° 0 mm 2 mps 739 mmHg 86%
    09:00 +14°C° 0 mm 2 mps 739 mmHg 80%
    10:00 +16°C° 0 mm 3 mps 739 mmHg 74%
    11:00 +17°C° 0 mm 3 mps 739 mmHg 70%
    12:00 +18°C° 0 mm 3 mps 739 mmHg 66%
    13:00 +19°C° 0 mm 3 mps 739 mmHg 62%
    14:00 +18°C° 0 mm 3 mps 739 mmHg 65%
    15:00 +17°C° 0 mm 3 mps 739 mmHg 68%
    16:00 +17°C° 0 mm 2 mps 739 mmHg 71%
    17:00 +16°C° 0 mm 2 mps 739 mmHg 76%
    18:00 +15°C° 0 mm 2 mps 739 mmHg 81%
    19:00 +14°C° 0 mm 2 mps 739 mmHg 86%
    20:00 +13°C° 0 mm 2 mps 739 mmHg 87%
    21:00 +13°C° 0 mm 2 mps 740 mmHg 89%
    22:00 +12°C° 0 mm 2 mps 740 mmHg 91%
    23:00 +12°C° 0 mm 2 mps 740 mmHg 91%

    21 October, Saturday

    Time Temperature Precipitation Wind Pressure Humidity
    00:00 +12°C° 0 mm 2 mps 740 mmHg 92%
    01:00 +12°C° 0 mm 2 mps 740 mmHg 92%
    02:00 +10°C° 0 mm 2 mps 739 mmHg 91%
    03:00 +10°C° 0 mm 2 mps 739 mmHg 91%
    04:00 +10°C° 0 mm 2 mps 739 mmHg 90%
    05:00 +10°C° 0 mm 2 mps 739 mmHg 89%
    06:00 +10°C° 0 mm 2 mps 739 mmHg 89%
    07:00 +10°C° 0 mm 2 mps 739 mmHg 88%
    08:00 +12°C° 0 mm 2 mps 739 mmHg 80%
    09:00 +14°C° 0 mm 2 mps 739 mmHg 72%
    10:00 +16°C° 0 mm 2 mps 740 mmHg 64%
    11:00 +17°C° 0 mm 2 mps 739 mmHg 61%
    12:00 +17°C° 0 mm 2 mps 739 mmHg 58%
    13:00 +18°C° 0 mm 2 mps 739 mmHg 55%
    14:00 +19°C° 0 mm 1 mps 739 mmHg 58%
    15:00 +18°C° 0 mm 1 mps 739 mmHg 61%
    16:00 +18°C° 0 mm 1 mps 739 mmHg 64%
    17:00 +16°C° 0 mm 1 mps 739 mmHg 68%
    18:00 +15°C° 0 mm 2 mps 739 mmHg 72%
    19:00 +14°C° 0 mm 2 mps 739 mmHg 75%
    20:00 +14°C° 0 mm 2 mps 739 mmHg 78%
    21:00 +13°C° 0 mm 2 mps 739 mmHg 80%
    22:00 +13°C° 0 mm 2 mps 739 mmHg 83%
    23:00 +13°C° 0 mm 2 mps 739 mmHg 83%

    22 October, Sunday

    Time Temperature Precipitation Wind Pressure Humidity
    00:00 +12°C° 0 mm 2 mps 739 mmHg 84%
    01:00 +12°C° 0 mm 2 mps 739 mmHg 84%
    02:00 +12°C° 0 mm 2 mps 739 mmHg 84%
    03:00 +12°C° 0 mm 2 mps 738 mmHg 84%
    04:00 +10°C° 0 mm 2 mps 738 mmHg 84%
    05:00 +10°C° 0 mm 2 mps 738 mmHg 83%
    06:00 +12°C° 0 mm 2 mps 738 mmHg 81%
    07:00 +12°C° 0 mm 2 mps 738 mmHg 80%
    08:00 +13°C° 0 mm 2 mps 738 mmHg 76%
    09:00 +14°C° 0 mm 1 mps 738 mmHg 71%
    10:00 +15°C° 0 mm 1 mps 738 mmHg 67%
    11:00 +15°C° 0.1 mm 1 mps 738 mmHg 68%
    12:00 +15°C° 0.1 mm 1 mps 737 mmHg 70%
    13:00 +15°C° 0.1 mm 1 mps 737 mmHg 71%
    14:00 +15°C° 0.1 mm 1 mps 737 mmHg 74%
    15:00 +14°C° 0.1 mm 1 mps 737 mmHg 77%
    16:00 +13°C° 0.1 mm 0 mps 737 mmHg 80%
    17:00 +14°C° 0.5 mm 1 mps 737 mmHg 82%
    18:00 +13°C° 0.5 mm 1 mps 737 mmHg 85%
    19:00 +13°C° 0.5 mm 1 mps 737 mmHg 87%
    20:00 +13°C° 0.8 mm 2 mps 738 mmHg 88%
    21:00 +11°C° 0.8 mm 3 mps 738 mmHg 88%
    22:00 +11°C° 0.8 mm 4 mps 738 mmHg 88%
    23:00 +10°C° 0.5 mm 4 mps 738 mmHg 88%

    23 October, Monday

    Time Temperature Precipitation Wind Pressure Humidity
    00:00 +10°C° 0.5 mm 4 mps 738 mmHg 87%
    01:00 +9°C° 0.5 mm 5 mps 739 mmHg 87%
    02:00 +8°C° 0.8 mm 5 mps 739 mmHg 87%
    03:00 +8°C° 0.8 mm 5 mps 739 mmHg 87%
    04:00 +8°C° 0.8 mm 5 mps 739 mmHg 88%
    05:00 +8°C° 0.3 mm 4 mps 739 mmHg 87%
    06:00 +8°C° 0.3 mm 4 mps 740 mmHg 87%
    07:00 +7°C° 0.3 mm 4 mps 740 mmHg 86%
    08:00 +8°C° 0 mm 5 mps 740 mmHg 82%
    09:00 +8°C° 0 mm 5 mps 741 mmHg 78%
    10:00 +9°C° 0 mm 6 mps 741 mmHg 74%
    11:00 +9°C° 0 mm 6 mps 741 mmHg 70%
    12:00 +9°C° 0 mm 6 mps 741 mmHg 66%
    13:00 +10°C° 0 mm 6 mps 741 mmHg 62%
    14:00 +9°C° 0 mm 5 mps 741 mmHg 63%
    15:00 +10°C° 0 mm 4 mps 741 mmHg 65%
    16:00 +10°C° 0 mm 3 mps 741 mmHg 66%
    17:00 +9°C° 0 mm 3 mps 741 mmHg 69%
    18:00 +8°C° 0 mm 3 mps 741 mmHg 72%
    19:00 +7°C° 0 mm 3 mps 741 mmHg 75%
    20:00 +7°C° 0 mm 3 mps 741 mmHg 76%
    21:00 +7°C° 0 mm 3 mps 741 mmHg 77%
    22:00 +6°C° 0 mm 4 mps 741 mmHg 78%
    23:00 +6°C° 0 mm 4 mps 741 mmHg 78%
    Show more